Time,TemperatureF,DewpointF,PressureIn,WindDirection,WindDirectionDegrees,WindSpeedMPH,WindSpeedGustMPH,Humidity,HourlyPrecipIn,Conditions,Clouds,dailyrainin,SoftwareType,DateUTC
2013-10-17 00:03:00,50.0,45.7,29.59,WNW,288,2.0,2.0,85,0.00,,,0.00,Wunderground v.1.15,2013-10-17 05:03:00,
2013-10-17 00:08:00,50.3,45.6,29.59,NNW,345,3.0,7.0,84,0.00,,,0.00,Wunderground v.1.15,2013-10-17 05:08:00,
2013-10-17 00:14:00,50.3,45.6,29.59,NNW,329,3.0,4.0,84,0.00,,,0.00,Wunderground v.1.15,2013-10-17 05:14:00,
2013-10-17 00:19:00,50.1,45.8,29.59,NNW,347,1.0,4.0,85,0.00,,,0.00,Wunderground v.1.15,2013-10-17 05:19:00,
2013-10-17 00:24:00,50.1,45.8,29.59,NNW,348,7.0,8.0,85,0.00,,,0.00,Wunderground v.1.15,2013-10-17 05:24:00,
2013-10-17 00:29:00,49.9,45.9,29.59,NNE,12,4.0,8.0,86,0.00,,,0.00,Wunderground v.1.15,2013-10-17 05:29:00,
2013-10-17 00:35:00,49.7,45.4,29.59,NW,311,5.0,5.0,85,0.00,,,0.00,Wunderground v.1.15,2013-10-17 05:35:00,
2013-10-17 00:40:00,49.6,45.3,29.60,NW,325,6.0,6.0,85,0.00,,,0.00,Wunderground v.1.15,2013-10-17 05:40:00,
2013-10-17 00:46:00,49.5,45.2,29.60,NW,318,4.0,6.0,85,0.00,,,0.00,Wunderground v.1.15,2013-10-17 05:46:00,
2013-10-17 00:51:00,49.4,45.4,29.60,NW,323,1.0,4.0,86,0.00,,,0.00,Wunderground v.1.15,2013-10-17 05:51:00,
2013-10-17 00:56:00,49.3,45.0,29.59,NNE,13,4.0,4.0,85,0.00,,,0.00,Wunderground v.1.15,2013-10-17 05:56:00,
2013-10-17 01:01:00,49.2,44.9,29.60,North,358,3.0,3.0,85,0.00,,,0.00,Wunderground v.1.15,2013-10-17 06:01:00,
2013-10-17 01:07:00,49.1,44.8,29.60,NNW,344,7.0,7.0,85,0.00,,,0.00,Wunderground v.1.15,2013-10-17 06:07:00,
2013-10-17 01:12:00,49.1,44.5,29.60,West,278,2.0,4.0,84,0.00,,,0.00,Wunderground v.1.15,2013-10-17 06:12:00,
2013-10-17 01:17:00,49.1,44.5,29.60,North,359,4.0,5.0,84,0.00,,,0.00,Wunderground v.1.15,2013-10-17 06:17:00,
2013-10-17 01:23:00,49.2,44.6,29.60,NW,311,3.0,6.0,84,0.00,,,0.00,Wunderground v.1.15,2013-10-17 06:23:00,
2013-10-17 01:28:00,49.2,44.6,29.59,NW,309,4.0,6.0,84,0.00,,,0.00,Wunderground v.1.15,2013-10-17 06:28:00,
2013-10-17 01:33:00,49.2,44.6,29.59,North,355,2.0,5.0,84,0.00,,,0.00,Wunderground v.1.15,2013-10-17 06:33:00,
2013-10-17 01:39:00,49.1,44.2,29.59,North,360,2.0,5.0,83,0.00,,,0.00,Wunderground v.1.15,2013-10-17 06:39:00,
2013-10-17 01:44:00,49.0,44.4,29.60,NNW,337,2.0,3.0,84,0.00,,,0.00,Wunderground v.1.15,2013-10-17 06:44:00,
2013-10-17 01:49:00,48.9,44.0,29.60,North,8,5.0,5.0,83,0.00,,,0.00,Wunderground v.1.15,2013-10-17 06:49:00,
2013-10-17 01:54:00,48.8,43.9,29.60,NW,307,1.0,2.0,83,0.00,,,0.00,Wunderground v.1.15,2013-10-17 06:54:00,
2013-10-17 02:00:00,48.8,43.9,29.60,NNW,347,0.0,1.0,83,0.00,,,0.00,Wunderground v.1.15,2013-10-17 07:00:00,
2013-10-17 02:05:00,48.8,43.9,29.60,NW,321,2.0,3.0,83,0.00,,,0.00,Wunderground v.1.15,2013-10-17 07:05:00,
2013-10-17 02:10:00,48.8,43.9,29.59,NW,322,7.0,7.0,83,0.00,,,0.00,Wunderground v.1.15,2013-10-17 07:10:00,
2013-10-17 02:15:00,48.7,43.8,29.60,WSW,258,1.0,8.0,83,0.00,,,0.00,Wunderground v.1.15,2013-10-17 07:15:00,
2013-10-17 02:20:00,48.5,43.6,29.60,NW,309,6.0,6.0,83,0.00,,,0.00,Wunderground v.1.15,2013-10-17 07:20:00,
2013-10-17 02:25:00,48.5,43.3,29.60,NW,324,5.0,10.0,82,0.00,,,0.00,Wunderground v.1.15,2013-10-17 07:25:00,
2013-10-17 02:30:00,48.6,43.7,29.59,NW,321,7.0,7.0,83,0.00,,,0.00,Wunderground v.1.15,2013-10-17 07:30:00,
2013-10-17 02:35:00,48.6,43.7,29.59,NNW,345,3.0,7.0,83,0.00,,,0.00,Wunderground v.1.15,2013-10-17 07:35:00,
2013-10-17 02:40:00,48.5,43.6,29.60,NW,323,1.0,4.0,83,0.00,,,0.00,Wunderground v.1.15,2013-10-17 07:40:00,
2013-10-17 02:45:00,48.5,43.6,29.60,North,349,2.0,5.0,83,0.00,,,0.00,Wunderground v.1.15,2013-10-17 07:45:00,
2013-10-17 02:50:00,48.4,43.5,29.60,NNW,329,3.0,3.0,83,0.00,,,0.00,Wunderground v.1.15,2013-10-17 07:50:00,
2013-10-17 02:55:00,48.4,43.8,29.59,NW,321,2.0,7.0,84,0.00,,,0.00,Wunderground v.1.15,2013-10-17 07:55:00,
2013-10-17 03:00:00,48.3,43.7,29.59,NW,321,3.0,4.0,84,0.00,,,0.00,Wunderground v.1.15,2013-10-17 08:00:00,
2013-10-17 03:05:00,48.2,43.9,29.59,NW,314,4.0,8.0,85,0.00,,,0.00,Wunderground v.1.15,2013-10-17 08:05:00,
2013-10-17 03:08:00,48.1,43.5,29.59,NW,318,3.0,8.0,84,0.00,,,0.00,Wunderground v.1.15,2013-10-17 08:08:00,
2013-10-17 03:13:00,48.2,43.6,29.60,NW,322,4.0,5.0,84,0.00,,,0.00,Wunderground v.1.15,2013-10-17 08:13:00,
2013-10-17 03:18:00,48.2,43.6,29.60,West,274,0.0,7.0,84,0.00,,,0.00,Wunderground v.1.15,2013-10-17 08:18:00,
2013-10-17 03:23:00,48.1,43.5,29.60,NW,305,3.0,4.0,84,0.00,,,0.00,Wunderground v.1.15,2013-10-17 08:23:00,
2013-10-17 03:28:00,48.1,43.5,29.60,NNW,329,2.0,4.0,84,0.00,,,0.00,Wunderground v.1.15,2013-10-17 08:28:00,
2013-10-17 03:33:00,48.2,43.6,29.60,NW,309,6.0,8.0,84,0.00,,,0.00,Wunderground v.1.15,2013-10-17 08:33:00,
2013-10-17 03:38:00,48.2,43.6,29.59,NW,314,5.0,8.0,84,0.00,,,0.00,Wunderground v.1.15,2013-10-17 08:38:00,
2013-10-17 03:43:00,48.2,43.3,29.59,NW,323,5.0,10.0,83,0.00,,,0.00,Wunderground v.1.15,2013-10-17 08:43:00,
2013-10-17 03:48:00,48.1,43.5,29.59,NW,317,3.0,10.0,84,0.00,,,0.00,Wunderground v.1.15,2013-10-17 08:48:00,
2013-10-17 03:53:00,48.0,43.7,29.59,NW,318,3.0,7.0,85,0.00,,,0.00,Wunderground v.1.15,2013-10-17 08:53:00,
2013-10-17 03:58:00,47.9,43.6,29.60,NW,314,5.0,7.0,85,0.00,,,0.00,Wunderground v.1.15,2013-10-17 08:58:00,
2013-10-17 04:03:00,47.8,43.5,29.59,NNW,345,5.0,7.0,85,0.00,,,0.00,Wunderground v.1.15,2013-10-17 09:03:00,
2013-10-17 04:08:00,47.7,43.4,29.59,NNW,337,1.0,7.0,85,0.00,,,0.00,Wunderground v.1.15,2013-10-17 09:08:00,
2013-10-17 04:13:00,47.8,43.5,29.59,NW,317,4.0,8.0,85,0.00,,,0.00,Wunderground v.1.15,2013-10-17 09:13:00,
2013-10-17 04:18:00,47.7,43.1,29.60,ENE,67,3.0,8.0,84,0.00,,,0.00,Wunderground v.1.15,2013-10-17 09:18:00,
2013-10-17 04:23:00,47.7,43.1,29.60,WNW,300,2.0,7.0,84,0.00,,,0.00,Wunderground v.1.15,2013-10-17 09:23:00,
2013-10-17 04:28:00,47.6,43.0,29.60,NW,320,0.0,7.0,84,0.00,,,0.00,Wunderground v.1.15,2013-10-17 09:28:00,
2013-10-17 04:33:00,47.7,42.8,29.60,NNW,329,4.0,7.0,83,0.00,,,0.00,Wunderground v.1.15,2013-10-17 09:33:00,
2013-10-17 04:38:00,47.8,43.2,29.60,NNW,345,4.0,7.0,84,0.00,,,0.00,Wunderground v.1.15,2013-10-17 09:38:00,
2013-10-17 04:43:00,47.8,43.5,29.60,North,352,4.0,9.0,85,0.00,,,0.00,Wunderground v.1.15,2013-10-17 09:43:00,
2013-10-17 04:48:00,47.7,43.7,29.59,NNW,347,6.0,9.0,86,0.00,,,0.00,Wunderground v.1.15,2013-10-17 09:48:00,
2013-10-17 04:53:00,47.6,43.6,29.59,NNW,337,3.0,7.0,86,0.00,,,0.00,Wunderground v.1.15,2013-10-17 09:53:00,
2013-10-17 04:59:00,47.4,43.4,29.60,North,351,2.0,7.0,86,0.00,,,0.00,Wunderground v.1.15,2013-10-17 09:59:00,
2013-10-17 05:04:00,47.3,43.3,29.60,NNW,329,1.0,5.0,86,0.00,,,0.00,Wunderground v.1.15,2013-10-17 10:04:00,
2013-10-17 05:09:00,47.3,43.6,29.60,WNW,294,2.0,5.0,87,0.00,,,0.00,Wunderground v.1.15,2013-10-17 10:09:00,
2013-10-17 05:14:00,47.3,43.3,29.61,NW,322,2.0,6.0,86,0.00,,,0.00,Wunderground v.1.15,2013-10-17 10:14:00,
2013-10-17 05:19:00,47.2,43.5,29.61,WNW,303,5.0,7.0,87,0.00,,,0.00,Wunderground v.1.15,2013-10-17 10:19:00,
2013-10-17 05:24:00,47.1,43.4,29.62,West,263,1.0,7.0,87,0.00,,,0.00,Wunderground v.1.15,2013-10-17 10:24:00,
2013-10-17 05:29:00,46.9,43.5,29.62,WNW,290,1.0,7.0,88,0.00,,,0.01,Wunderground v.1.15,2013-10-17 10:29:00,
2013-10-17 05:34:00,46.6,43.5,29.61,NW,323,2.0,9.0,89,0.13,,,0.02,Wunderground v.1.15,2013-10-17 10:34:00,
2013-10-17 05:39:00,46.4,43.6,29.61,NW,308,5.0,9.0,90,0.12,,,0.03,Wunderground v.1.15,2013-10-17 10:39:00,
2013-10-17 05:44:00,46.2,43.4,29.61,NW,321,4.0,7.0,90,0.12,,,0.04,Wunderground v.1.15,2013-10-17 10:44:00,
2013-10-17 05:49:00,46.1,43.3,29.61,NW,308,2.0,9.0,90,0.21,,,0.06,Wunderground v.1.15,2013-10-17 10:49:00,
2013-10-17 05:54:00,46.0,43.5,29.62,NW,321,4.0,9.0,91,0.18,,,0.07,Wunderground v.1.15,2013-10-17 10:54:00,
2013-10-17 05:59:00,45.9,43.4,29.62,NNW,335,1.0,9.0,91,0.07,,,0.07,Wunderground v.1.15,2013-10-17 10:59:00,
2013-10-17 06:04:00,45.8,43.3,29.62,NNW,328,5.0,7.0,91,0.05,,,0.07,Wunderground v.1.15,2013-10-17 11:04:00,
2013-10-17 06:09:00,45.8,43.3,29.62,SE,143,2.0,7.0,91,0.00,,,0.07,Wunderground v.1.15,2013-10-17 11:09:00,
2013-10-17 06:14:00,45.8,43.6,29.61,NW,316,3.0,7.0,92,0.00,,,0.08,Wunderground v.1.15,2013-10-17 11:14:00,
2013-10-17 06:19:00,45.8,43.6,29.61,North,6,4.0,7.0,92,0.00,,,0.08,Wunderground v.1.15,2013-10-17 11:19:00,
2013-10-17 06:24:00,45.8,43.6,29.61,ENE,57,3.0,7.0,92,0.00,,,0.08,Wunderground v.1.15,2013-10-17 11:24:00,
2013-10-17 06:29:00,45.7,43.5,29.61,NW,322,4.0,7.0,92,0.00,,,0.08,Wunderground v.1.15,2013-10-17 11:29:00,
2013-10-17 06:34:00,45.6,43.4,29.61,North,349,7.0,7.0,92,0.00,,,0.08,Wunderground v.1.15,2013-10-17 11:34:00,
2013-10-17 06:39:00,45.6,43.4,29.61,NW,314,2.0,7.0,92,0.00,,,0.08,Wunderground v.1.15,2013-10-17 11:39:00,
2013-10-17 06:44:00,45.6,43.4,29.61,North,355,1.0,5.0,92,0.00,,,0.08,Wunderground v.1.15,2013-10-17 11:44:00,
2013-10-17 06:49:00,45.6,43.4,29.61,NNW,347,0.0,5.0,92,0.00,,,0.08,Wunderground v.1.15,2013-10-17 11:49:00,
2013-10-17 06:54:00,45.5,43.3,29.61,North,11,3.0,6.0,92,0.00,,,0.08,Wunderground v.1.15,2013-10-17 11:54:00,
2013-10-17 06:59:00,45.5,43.3,29.60,NE,48,1.0,6.0,92,0.00,,,0.08,Wunderground v.1.15,2013-10-17 11:59:00,
2013-10-17 07:04:00,45.5,43.3,29.60,North,360,2.0,5.0,92,0.00,,,0.08,Wunderground v.1.15,2013-10-17 12:04:00,
2013-10-17 07:09:00,45.5,43.6,29.60,NE,55,0.0,5.0,93,0.00,,,0.08,Wunderground v.1.15,2013-10-17 12:09:00,
2013-10-17 07:14:00,45.5,43.6,29.60,ENE,60,0.0,4.0,93,0.00,,,0.08,Wunderground v.1.15,2013-10-17 12:14:00,
2013-10-17 07:19:00,45.6,43.7,29.60,SSW,200,0.0,4.0,93,0.00,,,0.08,Wunderground v.1.15,2013-10-17 12:19:00,
2013-10-17 07:24:00,45.7,43.8,29.61,South,188,1.0,5.0,93,0.00,,,0.08,Wunderground v.1.15,2013-10-17 12:24:00,
2013-10-17 07:29:00,45.8,43.6,29.61,SE,127,1.0,5.0,92,0.00,,,0.08,Wunderground v.1.15,2013-10-17 12:29:00,
2013-10-17 07:34:00,45.9,43.7,29.60,ESE,121,1.0,6.0,92,0.00,,,0.08,Wunderground v.1.15,2013-10-17 12:34:00,
2013-10-17 07:39:00,46.0,43.8,29.60,East,81,2.0,6.0,92,0.00,,,0.08,Wunderground v.1.15,2013-10-17 12:39:00,
2013-10-17 07:44:00,46.1,43.9,29.61,ESE,107,1.0,3.0,92,0.00,,,0.08,Wunderground v.1.15,2013-10-17 12:44:00,
2013-10-17 07:49:00,46.3,44.1,29.61,East,96,1.0,4.0,92,0.00,,,0.08,Wunderground v.1.15,2013-10-17 12:49:00,
2013-10-17 07:54:00,46.3,44.1,29.61,ENE,63,2.0,2.0,92,0.00,,,0.08,Wunderground v.1.15,2013-10-17 12:54:00,
2013-10-17 07:59:00,46.4,44.2,29.61,NE,46,1.0,3.0,92,0.00,,,0.08,Wunderground v.1.15,2013-10-17 12:59:00,
2013-10-17 08:04:00,46.4,44.2,29.61,NNE,20,0.0,2.0,92,0.00,,,0.08,Wunderground v.1.15,2013-10-17 13:04:00,
2013-10-17 08:09:00,46.4,44.2,29.62,North,11,1.0,2.0,92,0.00,,,0.08,Wunderground v.1.15,2013-10-17 13:09:00,
2013-10-17 08:14:00,46.6,44.7,29.62,East,99,0.0,0.0,93,0.00,,,0.08,Wunderground v.1.15,2013-10-17 13:14:00,
2013-10-17 08:19:00,46.7,44.8,29.62,SW,226,0.0,0.0,93,0.00,,,0.08,Wunderground v.1.15,2013-10-17 13:19:00,
2013-10-17 08:24:00,46.7,44.8,29.62,SW,219,0.0,0.0,93,0.00,,,0.08,Wunderground v.1.15,2013-10-17 13:24:00,
2013-10-17 08:29:00,46.7,44.5,29.62,SW,218,0.0,0.0,92,0.00,,,0.08,Wunderground v.1.15,2013-10-17 13:29:00,
2013-10-17 08:34:00,46.7,44.8,29.63,SW,229,0.0,0.0,93,0.00,,,0.08,Wunderground v.1.15,2013-10-17 13:34:00,
2013-10-17 08:39:00,47.0,45.4,29.63,SW,231,0.0,0.0,94,0.00,,,0.08,Wunderground v.1.15,2013-10-17 13:39:00,
2013-10-17 08:44:00,47.1,45.2,29.63,WSW,242,0.0,0.0,93,0.00,,,0.08,Wunderground v.1.15,2013-10-17 13:44:00,
2013-10-17 08:49:00,47.2,45.3,29.63,SE,145,2.0,2.0,93,0.00,,,0.08,Wunderground v.1.15,2013-10-17 13:49:00,
2013-10-17 08:54:00,47.4,45.5,29.63,SW,217,0.0,2.0,93,0.00,,,0.08,Wunderground v.1.15,2013-10-17 13:54:00,
2013-10-17 08:59:00,47.6,45.4,29.63,WSW,242,0.0,2.0,92,0.00,,,0.08,Wunderground v.1.15,2013-10-17 13:59:00,
2013-10-17 09:05:00,47.8,45.6,29.63,WSW,249,0.0,0.0,92,0.00,,,0.08,Wunderground v.1.15,2013-10-17 14:05:00,
2013-10-17 09:10:00,47.9,45.1,29.63,ENE,63,1.0,1.0,90,0.00,,,0.08,Wunderground v.1.15,2013-10-17 14:10:00,
2013-10-17 09:15:00,48.3,45.5,29.63,South,170,1.0,1.0,90,0.00,,,0.08,Wunderground v.1.15,2013-10-17 14:15:00,
2013-10-17 09:20:00,48.9,46.4,29.63,SW,219,1.0,1.0,91,0.00,,,0.08,Wunderground v.1.15,2013-10-17 14:20:00,
2013-10-17 09:25:00,49.4,46.3,29.63,NW,317,1.0,2.0,89,0.00,,,0.08,Wunderground v.1.15,2013-10-17 14:25:00,
2013-10-17 09:30:00,49.6,46.2,29.63,ESE,114,2.0,2.0,88,0.00,,,0.08,Wunderground v.1.15,2013-10-17 14:30:00,
2013-10-17 09:35:00,50.1,46.1,29.63,ENE,72,2.0,5.0,86,0.00,,,0.08,Wunderground v.1.15,2013-10-17 14:35:00,
2013-10-17 09:40:00,50.5,46.2,29.63,SE,128,1.0,2.0,85,0.00,,,0.08,Wunderground v.1.15,2013-10-17 14:40:00,
2013-10-17 09:45:00,50.8,45.8,29.63,ESE,116,3.0,5.0,83,0.00,,,0.08,Wunderground v.1.15,2013-10-17 14:45:00,
2013-10-17 09:50:00,51.5,46.8,29.63,East,100,2.0,2.0,84,0.00,,,0.08,Wunderground v.1.15,2013-10-17 14:50:00,
2013-10-17 09:55:00,51.7,46.1,29.63,SE,139,2.0,3.0,81,0.00,,,0.08,Wunderground v.1.15,2013-10-17 14:55:00,
2013-10-17 10:00:00,51.8,46.8,29.63,SSW,211,1.0,2.0,83,0.00,,,0.08,Wunderground v.1.15,2013-10-17 15:00:00,
2013-10-17 10:05:00,51.6,46.6,29.63,SW,217,1.0,3.0,83,0.00,,,0.08,Wunderground v.1.15,2013-10-17 15:05:00,
2013-10-17 10:10:00,51.1,46.1,29.63,WSW,237,2.0,2.0,83,0.00,,,0.08,Wunderground v.1.15,2013-10-17 15:10:00,
2013-10-17 10:15:00,50.8,46.5,29.63,SW,214,1.0,2.0,85,0.00,,,0.08,Wunderground v.1.15,2013-10-17 15:15:00,
2013-10-17 10:20:00,50.8,46.5,29.63,WSW,238,1.0,1.0,85,0.00,,,0.08,Wunderground v.1.15,2013-10-17 15:20:00,
2013-10-17 10:25:00,50.9,46.6,29.63,West,270,1.0,3.0,85,0.00,,,0.08,Wunderground v.1.15,2013-10-17 15:25:00,
2013-10-17 10:30:00,51.0,46.6,29.63,West,279,2.0,3.0,85,0.00,,,0.08,Wunderground v.1.15,2013-10-17 15:30:00,
2013-10-17 10:35:00,51.3,46.6,29.63,SW,227,1.0,3.0,84,0.00,,,0.08,Wunderground v.1.15,2013-10-17 15:35:00,
2013-10-17 10:40:00,51.8,46.5,29.63,SW,233,1.0,2.0,82,0.00,,,0.08,Wunderground v.1.15,2013-10-17 15:40:00,
2013-10-17 10:45:00,52.4,46.7,29.63,SW,224,1.0,3.0,81,0.00,,,0.08,Wunderground v.1.15,2013-10-17 15:45:00,
2013-10-17 10:50:00,53.0,48.0,29.62,SW,228,3.0,3.0,83,0.00,,,0.08,Wunderground v.1.15,2013-10-17 15:50:00,
2013-10-17 10:55:00,54.0,48.0,29.63,SSW,198,3.0,5.0,80,0.00,,,0.08,Wunderground v.1.15,2013-10-17 15:55:00,
2013-10-17 11:00:00,55.1,48.7,29.62,WSW,247,1.0,4.0,79,0.00,,,0.08,Wunderground v.1.15,2013-10-17 16:00:00,
2013-10-17 11:05:00,54.9,47.5,29.63,SW,219,2.0,5.0,76,0.00,,,0.08,Wunderground v.1.15,2013-10-17 16:05:00,
2013-10-17 11:11:00,54.1,47.0,29.63,WSW,246,1.0,3.0,77,0.00,,,0.08,Wunderground v.1.15,2013-10-17 16:11:00,
2013-10-17 11:16:00,54.2,47.5,29.63,West,259,0.0,4.0,78,0.00,,,0.08,Wunderground v.1.15,2013-10-17 16:16:00,
2013-10-17 11:21:00,54.7,47.6,29.63,SW,224,5.0,5.0,77,0.00,,,0.08,Wunderground v.1.15,2013-10-17 16:21:00,
2013-10-17 11:26:00,54.3,47.2,29.63,SSW,201,1.0,5.0,77,0.00,,,0.08,Wunderground v.1.15,2013-10-17 16:26:00,
2013-10-17 11:31:00,54.7,47.3,29.63,NNW,329,3.0,4.0,76,0.00,,,0.08,Wunderground v.1.15,2013-10-17 16:31:00,
2013-10-17 11:36:00,54.4,47.0,29.63,SW,231,1.0,8.0,76,0.00,,,0.08,Wunderground v.1.15,2013-10-17 16:36:00,
2013-10-17 11:41:00,54.2,46.8,29.63,WSW,254,2.0,3.0,76,0.00,,,0.08,Wunderground v.1.15,2013-10-17 16:41:00,
2013-10-17 11:46:00,54.6,46.5,29.63,West,281,1.0,5.0,74,0.00,,,0.08,Wunderground v.1.15,2013-10-17 16:46:00,
2013-10-17 11:51:00,55.3,47.2,29.63,WNW,285,3.0,7.0,74,0.00,,,0.08,Wunderground v.1.15,2013-10-17 16:51:00,
2013-10-17 11:56:00,55.2,46.7,29.63,West,275,2.0,7.0,73,0.00,,,0.08,Wunderground v.1.15,2013-10-17 16:56:00,
2013-10-17 12:01:00,55.5,46.6,29.63,West,278,5.0,5.0,72,0.00,,,0.00,Wunderground v.1.15,2013-10-17 17:01:00,
2013-10-17 12:06:00,55.6,46.7,29.62,SW,214,1.0,8.0,72,0.00,,,0.00,Wunderground v.1.15,2013-10-17 17:06:00,
2013-10-17 12:11:00,56.3,46.6,29.63,WSW,255,4.0,6.0,70,0.00,,,0.00,Wunderground v.1.15,2013-10-17 17:11:00,
2013-10-17 12:16:00,55.5,46.2,29.63,WNW,293,3.0,7.0,71,0.00,,,0.00,Wunderground v.1.15,2013-10-17 17:16:00,
2013-10-17 12:21:00,55.3,46.4,29.62,West,271,7.0,7.0,72,0.00,,,0.00,Wunderground v.1.15,2013-10-17 17:21:00,
2013-10-17 12:26:00,55.4,46.5,29.62,NW,304,2.0,9.0,72,0.00,,,0.00,Wunderground v.1.15,2013-10-17 17:26:00,
2013-10-17 12:31:00,55.5,46.6,29.62,NW,311,4.0,7.0,72,0.00,,,0.00,Wunderground v.1.15,2013-10-17 17:31:00,
2013-10-17 12:36:00,55.5,47.0,29.62,NW,320,5.0,7.0,73,0.00,,,0.00,Wunderground v.1.15,2013-10-17 17:36:00,
2013-10-17 12:42:00,55.5,47.3,29.62,West,259,3.0,4.0,74,0.00,,,0.00,Wunderground v.1.15,2013-10-17 17:42:00,
2013-10-17 12:47:00,55.7,46.8,29.62,WNW,301,4.0,8.0,72,0.00,,,0.00,Wunderground v.1.15,2013-10-17 17:47:00,
2013-10-17 12:52:00,56.3,46.6,29.62,SW,232,4.0,8.0,70,0.00,,,0.00,Wunderground v.1.15,2013-10-17 17:52:00,
2013-10-17 12:57:00,56.6,46.9,29.61,NW,321,2.0,9.0,70,0.00,,,0.00,Wunderground v.1.15,2013-10-17 17:57:00,
2013-10-17 13:02:00,56.0,46.7,29.61,WNW,301,3.0,6.0,71,0.00,,,0.00,Wunderground v.1.15,2013-10-17 18:02:00,
2013-10-17 13:07:00,56.1,47.2,29.61,West,280,7.0,8.0,72,0.00,,,0.00,Wunderground v.1.15,2013-10-17 18:07:00,
2013-10-17 13:12:00,55.3,46.1,29.61,WNW,283,4.0,6.0,71,0.00,,,0.00,Wunderground v.1.15,2013-10-17 18:12:00,
2013-10-17 13:17:00,55.8,45.8,29.60,WNW,288,8.0,10.0,69,0.00,,,0.00,Wunderground v.1.15,2013-10-17 18:17:00,
2013-10-17 13:22:00,56.4,46.0,29.60,West,263,2.0,5.0,68,0.00,,,0.00,Wunderground v.1.15,2013-10-17 18:22:00,
2013-10-17 13:27:00,56.9,46.4,29.60,WSW,242,3.0,8.0,68,0.00,,,0.00,Wunderground v.1.15,2013-10-17 18:27:00,
2013-10-17 13:32:00,57.2,45.9,29.60,SW,233,5.0,9.0,66,0.00,,,0.00,Wunderground v.1.15,2013-10-17 18:32:00,
2013-10-17 13:37:00,57.4,46.5,29.60,WNW,293,3.0,9.0,67,0.00,,,0.00,Wunderground v.1.15,2013-10-17 18:37:00,
2013-10-17 13:42:00,57.7,46.8,29.60,SW,222,1.0,6.0,67,0.00,,,0.00,Wunderground v.1.15,2013-10-17 18:42:00,
2013-10-17 13:47:00,58.5,47.2,29.60,WSW,239,3.0,8.0,66,0.00,,,0.00,Wunderground v.1.15,2013-10-17 18:47:00,
2013-10-17 13:52:00,58.6,47.3,29.59,WSW,246,8.0,8.0,66,0.00,,,0.00,Wunderground v.1.15,2013-10-17 18:52:00,
2013-10-17 13:57:00,58.6,45.6,29.59,WSW,249,2.0,9.0,62,0.00,,,0.00,Wunderground v.1.15,2013-10-17 18:57:00,
2013-10-17 14:02:00,58.5,45.9,29.59,NW,308,8.0,8.0,63,0.00,,,0.00,Wunderground v.1.15,2013-10-17 19:02:00,
2013-10-17 14:07:00,59.0,46.0,29.59,WNW,302,4.0,10.0,62,0.00,,,0.00,Wunderground v.1.15,2013-10-17 19:07:00,
2013-10-17 14:12:00,59.4,45.9,29.59,West,262,2.0,7.0,61,0.00,,,0.00,Wunderground v.1.15,2013-10-17 19:12:00,
2013-10-17 14:17:00,59.4,45.5,29.59,West,269,6.0,7.0,60,0.00,,,0.00,Wunderground v.1.15,2013-10-17 19:17:00,
2013-10-17 14:22:00,59.5,44.2,29.59,West,264,9.0,12.0,57,0.00,,,0.00,Wunderground v.1.15,2013-10-17 19:22:00,
2013-10-17 14:27:00,59.3,45.0,29.59,WSW,242,4.0,12.0,59,0.00,,,0.00,Wunderground v.1.15,2013-10-17 19:27:00,
2013-10-17 14:32:00,59.8,45.4,29.59,West,262,7.0,7.0,59,0.00,,,0.00,Wunderground v.1.15,2013-10-17 19:32:00,
2013-10-17 14:37:00,59.5,44.7,29.59,West,271,1.0,8.0,58,0.00,,,0.00,Wunderground v.1.15,2013-10-17 19:37:00,
2013-10-17 14:42:00,59.0,44.7,29.59,West,270,4.0,10.0,59,0.00,,,0.00,Wunderground v.1.15,2013-10-17 19:42:00,
2013-10-17 14:47:00,58.7,44.4,29.59,WNW,287,3.0,10.0,59,0.00,,,0.00,Wunderground v.1.15,2013-10-17 19:47:00,
2013-10-17 14:52:00,58.4,45.0,29.59,West,278,2.0,7.0,61,0.00,,,0.00,Wunderground v.1.15,2013-10-17 19:52:00,
2013-10-17 14:57:00,58.5,44.7,29.59,West,268,6.0,10.0,60,0.00,,,0.00,Wunderground v.1.15,2013-10-17 19:57:00,
2013-10-17 15:02:00,57.8,44.0,29.59,WNW,285,4.0,5.0,60,0.00,,,0.00,Wunderground v.1.15,2013-10-17 20:02:00,
2013-10-17 15:07:00,57.8,44.4,29.59,NW,304,9.0,9.0,61,0.00,,,0.00,Wunderground v.1.15,2013-10-17 20:07:00,
2013-10-17 15:12:00,58.1,44.7,29.59,WNW,283,5.0,8.0,61,0.00,,,0.00,Wunderground v.1.15,2013-10-17 20:12:00,
2013-10-17 15:17:00,58.6,45.2,29.59,WNW,287,4.0,10.0,61,0.00,,,0.00,Wunderground v.1.15,2013-10-17 20:17:00,
2013-10-17 15:23:00,58.8,45.4,29.59,NW,323,3.0,6.0,61,0.00,,,0.00,Wunderground v.1.15,2013-10-17 20:23:00,
2013-10-17 15:28:00,58.5,45.1,29.59,SW,231,3.0,9.0,61,0.00,,,0.00,Wunderground v.1.15,2013-10-17 20:28:00,
2013-10-17 15:32:00,58.5,45.1,29.59,West,259,2.0,7.0,61,0.00,,,0.00,Wunderground v.1.15,2013-10-17 20:32:00,
2013-10-17 15:38:00,58.3,44.9,29.59,SW,232,5.0,13.0,61,0.00,,,0.00,Wunderground v.1.15,2013-10-17 20:38:00,
2013-10-17 15:42:00,57.8,44.9,29.59,WNW,293,4.0,8.0,62,0.00,,,0.00,Wunderground v.1.15,2013-10-17 20:42:00,
2013-10-17 15:47:00,58.3,45.8,29.59,West,279,0.0,8.0,63,0.00,,,0.00,Wunderground v.1.15,2013-10-17 20:47:00,
2013-10-17 15:52:00,58.9,45.0,29.59,West,277,3.0,6.0,60,0.00,,,0.00,Wunderground v.1.15,2013-10-17 20:52:00,
2013-10-17 15:57:00,59.3,44.5,29.59,NW,326,2.0,6.0,58,0.00,,,0.00,Wunderground v.1.15,2013-10-17 20:57:00,
2013-10-17 16:02:00,59.5,44.2,29.59,WNW,287,3.0,5.0,57,0.00,,,0.00,Wunderground v.1.15,2013-10-17 21:02:00,
2013-10-17 16:08:00,59.7,45.3,29.59,WSW,252,3.0,5.0,59,0.00,,,0.00,Wunderground v.1.15,2013-10-17 21:08:00,
2013-10-17 16:13:00,60.0,45.2,29.59,WNW,301,5.0,8.0,58,0.00,,,0.00,Wunderground v.1.15,2013-10-17 21:13:00,
2013-10-17 16:18:00,59.3,44.1,29.59,West,271,4.0,8.0,57,0.00,,,0.00,Wunderground v.1.15,2013-10-17 21:18:00,
2013-10-17 16:23:00,59.1,44.3,29.58,West,263,3.0,6.0,58,0.00,,,0.00,Wunderground v.1.15,2013-10-17 21:23:00,
2013-10-17 16:28:00,59.1,44.3,29.59,West,271,6.0,6.0,58,0.00,,,0.00,Wunderground v.1.15,2013-10-17 21:28:00,
2013-10-17 16:33:00,59.1,43.4,29.58,WNW,287,2.0,4.0,56,0.00,,,0.00,Wunderground v.1.15,2013-10-17 21:33:00,
2013-10-17 16:38:00,59.1,44.3,29.58,WNW,282,1.0,6.0,58,0.00,,,0.00,Wunderground v.1.15,2013-10-17 21:38:00,
2013-10-17 16:43:00,59.0,44.7,29.59,SW,236,1.0,6.0,59,0.00,,,0.00,Wunderground v.1.15,2013-10-17 21:43:00,
2013-10-17 16:48:00,58.9,45.0,29.58,SSE,148,2.0,6.0,60,0.00,,,0.00,Wunderground v.1.15,2013-10-17 21:48:00,
2013-10-17 16:53:00,59.3,45.4,29.59,WSW,250,1.0,4.0,60,0.00,,,0.00,Wunderground v.1.15,2013-10-17 21:53:00,
2013-10-17 16:58:00,59.5,44.7,29.58,SW,221,1.0,5.0,58,0.00,,,0.00,Wunderground v.1.15,2013-10-17 21:58:00,
2013-10-17 17:03:00,59.6,45.2,29.59,West,273,1.0,3.0,59,0.00,,,0.00,Wunderground v.1.15,2013-10-17 22:03:00,
2013-10-17 17:08:00,59.8,45.0,29.59,WSW,256,1.0,4.0,58,0.00,,,0.00,Wunderground v.1.15,2013-10-17 22:08:00,
2013-10-17 17:13:00,59.8,45.9,29.59,SSW,208,3.0,4.0,60,0.00,,,0.00,Wunderground v.1.15,2013-10-17 22:13:00,
2013-10-17 17:18:00,59.2,44.4,29.59,West,274,1.0,6.0,58,0.00,,,0.00,Wunderground v.1.15,2013-10-17 22:18:00,
2013-10-17 17:23:00,59.0,45.1,29.59,WSW,249,1.0,4.0,60,0.00,,,0.00,Wunderground v.1.15,2013-10-17 22:23:00,
2013-10-17 17:28:00,59.1,45.2,29.59,West,271,2.0,4.0,60,0.00,,,0.00,Wunderground v.1.15,2013-10-17 22:28:00,
2013-10-17 17:33:00,59.0,45.6,29.59,SW,215,1.0,5.0,61,0.00,,,0.00,Wunderground v.1.15,2013-10-17 22:33:00,
2013-10-17 17:38:00,58.9,45.0,29.58,West,281,1.0,5.0,60,0.00,,,0.00,Wunderground v.1.15,2013-10-17 22:38:00,
2013-10-17 17:43:00,58.9,45.0,29.59,SW,233,1.0,3.0,60,0.00,,,0.00,Wunderground v.1.15,2013-10-17 22:43:00,
2013-10-17 17:48:00,58.5,45.5,29.58,West,260,2.0,3.0,62,0.00,,,0.00,Wunderground v.1.15,2013-10-17 22:48:00,
2013-10-17 17:53:00,58.0,45.5,29.58,SW,218,1.0,3.0,63,0.00,,,0.00,Wunderground v.1.15,2013-10-17 22:53:00,
2013-10-17 17:58:00,57.3,45.6,29.59,SW,226,1.0,3.0,65,0.00,,,0.00,Wunderground v.1.15,2013-10-17 22:58:00,
2013-10-17 18:03:00,56.7,45.9,29.59,WSW,240,0.0,4.0,67,0.00,,,0.00,Wunderground v.1.15,2013-10-17 23:03:00,
2013-10-17 18:08:00,56.2,45.8,29.59,SW,235,0.0,4.0,68,0.00,,,0.00,Wunderground v.1.15,2013-10-17 23:08:00,
2013-10-17 18:13:00,55.7,45.7,29.59,SW,226,0.0,0.0,69,0.00,,,0.00,Wunderground v.1.15,2013-10-17 23:13:00,
2013-10-17 18:18:00,55.2,45.6,29.59,SW,225,0.0,0.0,70,0.00,,,0.00,Wunderground v.1.15,2013-10-17 23:18:00,
2013-10-17 18:23:00,54.7,45.5,29.59,SW,225,0.0,0.0,71,0.00,,,0.00,Wunderground v.1.15,2013-10-17 23:23:00,
2013-10-17 18:28:00,54.4,46.3,29.59,SW,225,0.0,0.0,74,0.00,,,0.00,Wunderground v.1.15,2013-10-17 23:28:00,
2013-10-17 18:33:00,53.8,46.4,29.59,SW,225,0.0,0.0,76,0.00,,,0.00,Wunderground v.1.15,2013-10-17 23:33:00,
2013-10-17 18:38:00,53.3,47.0,29.59,SE,131,0.0,0.0,79,0.00,,,0.00,Wunderground v.1.15,2013-10-17 23:38:00,
2013-10-17 18:43:00,52.9,46.6,29.59,SSE,167,0.0,0.0,79,0.00,,,0.00,Wunderground v.1.15,2013-10-17 23:43:00,
2013-10-17 18:49:00,52.4,46.4,29.60,SSE,167,0.0,0.0,80,0.00,,,0.00,Wunderground v.1.15,2013-10-17 23:49:00,
2013-10-17 18:54:00,51.8,46.2,29.60,SSE,167,0.0,0.0,81,0.00,,,0.00,Wunderground v.1.15,2013-10-17 23:54:00,
2013-10-17 18:59:00,51.2,45.9,29.60,SSE,167,0.0,0.0,82,0.00,,,0.00,Wunderground v.1.15,2013-10-17 23:59:00,
2013-10-17 19:04:00,51.0,46.0,29.60,SSE,167,0.0,0.0,83,0.00,,,0.00,Wunderground v.1.15,2013-10-18 00:04:00,
2013-10-17 19:09:00,50.7,45.7,29.60,SSE,167,0.0,0.0,83,0.00,,,0.00,Wunderground v.1.15,2013-10-18 00:09:00,
2013-10-17 19:14:00,50.4,45.7,29.60,SSE,167,0.0,0.0,84,0.00,,,0.00,Wunderground v.1.15,2013-10-18 00:14:00,
2013-10-17 19:19:00,50.3,46.3,29.60,SSE,162,0.0,0.0,86,0.00,,,0.00,Wunderground v.1.15,2013-10-18 00:19:00,
2013-10-17 19:24:00,50.1,46.1,29.60,SSE,162,0.0,0.0,86,0.00,,,0.00,Wunderground v.1.15,2013-10-18 00:24:00,
2013-10-17 19:29:00,49.9,46.2,29.60,SSE,162,0.0,0.0,87,0.00,,,0.00,Wunderground v.1.15,2013-10-18 00:29:00,
2013-10-17 19:34:00,49.5,45.8,29.61,SSE,162,0.0,0.0,87,0.00,,,0.00,Wunderground v.1.15,2013-10-18 00:34:00,
2013-10-17 19:39:00,49.0,45.6,29.61,SSE,162,0.0,0.0,88,0.00,,,0.00,Wunderground v.1.15,2013-10-18 00:39:00,
2013-10-17 19:44:00,48.7,45.6,29.61,SSE,162,0.0,0.0,89,0.00,,,0.00,Wunderground v.1.15,2013-10-18 00:44:00,
2013-10-17 19:49:00,48.5,45.7,29.61,SSE,162,0.0,0.0,90,0.00,,,0.00,Wunderground v.1.15,2013-10-18 00:49:00,
2013-10-17 19:54:00,48.4,45.6,29.61,SSE,162,0.0,0.0,90,0.00,,,0.00,Wunderground v.1.15,2013-10-18 00:54:00,
2013-10-17 19:59:00,48.4,45.6,29.61,SSE,158,0.0,0.0,90,0.00,,,0.00,Wunderground v.1.15,2013-10-18 00:59:00,
2013-10-17 20:04:00,48.5,45.7,29.61,SSE,156,0.0,0.0,90,0.00,,,0.00,Wunderground v.1.15,2013-10-18 01:04:00,
2013-10-17 20:09:00,48.5,45.4,29.61,South,170,0.0,0.0,89,0.00,,,0.00,Wunderground v.1.15,2013-10-18 01:09:00,
2013-10-17 20:14:00,48.6,45.5,29.61,SE,145,0.0,0.0,89,0.00,,,0.00,Wunderground v.1.15,2013-10-18 01:14:00,
2013-10-17 20:19:00,48.5,45.7,29.62,South,172,0.0,0.0,90,0.00,,,0.00,Wunderground v.1.15,2013-10-18 01:19:00,
2013-10-17 20:24:00,48.4,45.6,29.62,South,176,1.0,2.0,90,0.00,,,0.00,Wunderground v.1.15,2013-10-18 01:24:00,
2013-10-17 20:29:00,48.4,45.3,29.62,South,176,0.0,2.0,89,0.00,,,0.00,Wunderground v.1.15,2013-10-18 01:29:00,
2013-10-17 20:34:00,48.3,45.2,29.62,South,170,0.0,0.0,89,0.00,,,0.00,Wunderground v.1.15,2013-10-18 01:34:00,
2013-10-17 20:39:00,48.2,45.4,29.62,SE,145,0.0,1.0,90,0.00,,,0.00,Wunderground v.1.15,2013-10-18 01:39:00,
2013-10-17 20:44:00,48.3,45.2,29.62,SSE,155,0.0,0.0,89,0.00,,,0.00,Wunderground v.1.15,2013-10-18 01:44:00,
2013-10-17 20:49:00,48.3,45.2,29.62,SE,141,1.0,3.0,89,0.00,,,0.00,Wunderground v.1.15,2013-10-18 01:49:00,
2013-10-17 20:54:00,48.2,45.1,29.62,South,172,0.0,1.0,89,0.00,,,0.00,Wunderground v.1.15,2013-10-18 01:54:00,
2013-10-17 20:59:00,48.0,45.2,29.62,SSE,163,0.0,1.0,90,0.00,,,0.00,Wunderground v.1.15,2013-10-18 01:59:00,
2013-10-17 21:04:00,47.9,45.1,29.62,SSE,165,0.0,0.0,90,0.00,,,0.00,Wunderground v.1.15,2013-10-18 02:04:00,
2013-10-17 21:09:00,47.8,45.0,29.62,SSE,156,0.0,0.0,90,0.00,,,0.00,Wunderground v.1.15,2013-10-18 02:09:00,
2013-10-17 21:14:00,47.7,44.9,29.62,SE,141,0.0,0.0,90,0.00,,,0.00,Wunderground v.1.15,2013-10-18 02:14:00,
2013-10-17 21:20:00,47.6,45.1,29.62,South,170,1.0,2.0,91,0.00,,,0.00,Wunderground v.1.15,2013-10-18 02:20:00,
2013-10-17 21:25:00,47.4,44.9,29.62,SE,143,0.0,3.0,91,0.00,,,0.00,Wunderground v.1.15,2013-10-18 02:25:00,
2013-10-17 21:29:00,47.2,44.7,29.63,SSW,203,0.0,3.0,91,0.00,,,0.00,Wunderground v.1.15,2013-10-18 02:29:00,
2013-10-17 21:34:00,47.0,44.8,29.63,SSE,158,0.0,2.0,92,0.00,,,0.00,Wunderground v.1.15,2013-10-18 02:34:00,
2013-10-17 21:40:00,46.8,44.6,29.63,South,177,1.0,1.0,92,0.00,,,0.00,Wunderground v.1.15,2013-10-18 02:40:00,
2013-10-17 21:45:00,46.8,44.6,29.63,South,181,0.0,2.0,92,0.00,,,0.00,Wunderground v.1.15,2013-10-18 02:45:00,
2013-10-17 21:50:00,46.7,44.5,29.63,SSE,156,0.0,2.0,92,0.00,,,0.00,Wunderground v.1.15,2013-10-18 02:50:00,
2013-10-17 21:55:00,46.6,44.4,29.63,SSW,213,1.0,2.0,92,0.00,,,0.00,Wunderground v.1.15,2013-10-18 02:55:00,
2013-10-17 22:00:00,46.5,44.3,29.63,South,184,0.0,1.0,92,0.00,,,0.00,Wunderground v.1.15,2013-10-18 03:00:00,
2013-10-17 22:05:00,46.4,44.2,29.63,SW,215,0.0,1.0,92,0.00,,,0.00,Wunderground v.1.15,2013-10-18 03:05:00,
2013-10-17 22:10:00,46.3,44.1,29.63,SSW,198,0.0,0.0,92,0.00,,,0.00,Wunderground v.1.15,2013-10-18 03:10:00,
2013-10-17 22:15:00,46.2,44.0,29.62,SSW,203,0.0,1.0,92,0.00,,,0.00,Wunderground v.1.15,2013-10-18 03:15:00,
2013-10-17 22:20:00,46.1,43.9,29.63,SSW,201,0.0,0.0,92,0.00,,,0.00,Wunderground v.1.15,2013-10-18 03:20:00,
2013-10-17 22:25:00,46.1,43.9,29.63,SSW,205,0.0,0.0,92,0.00,,,0.00,Wunderground v.1.15,2013-10-18 03:25:00,
2013-10-17 22:30:00,46.0,43.8,29.63,SSW,205,0.0,0.0,92,0.00,,,0.00,Wunderground v.1.15,2013-10-18 03:30:00,
2013-10-17 22:35:00,45.9,44.0,29.63,SE,136,0.0,0.0,93,0.00,,,0.00,Wunderground v.1.15,2013-10-18 03:35:00,
2013-10-17 22:40:00,45.9,43.7,29.62,South,169,0.0,0.0,92,0.00,,,0.00,Wunderground v.1.15,2013-10-18 03:40:00,
2013-10-17 22:45:00,45.8,43.6,29.62,SSE,158,0.0,2.0,92,0.00,,,0.00,Wunderground v.1.15,2013-10-18 03:45:00,
2013-10-17 22:50:00,45.7,43.5,29.62,SSE,161,0.0,0.0,92,0.00,,,0.00,Wunderground v.1.15,2013-10-18 03:50:00,
2013-10-17 22:55:00,45.5,43.6,29.62,SW,218,0.0,2.0,93,0.00,,,0.00,Wunderground v.1.15,2013-10-18 03:55:00,
2013-10-17 23:00:00,45.4,43.5,29.62,SSE,152,0.0,0.0,93,0.00,,,0.00,Wunderground v.1.15,2013-10-18 04:00:00,
2013-10-17 23:01:00,45.4,43.5,29.62,SSE,152,0.0,0.0,93,0.00,,,0.00,Wunderground v.1.15,2013-10-18 04:01:00,
2013-10-17 23:06:00,45.3,43.4,29.62,SW,225,0.0,0.0,93,0.00,,,0.00,Wunderground v.1.15,2013-10-18 04:06:00,
2013-10-17 23:11:00,45.2,43.3,29.62,SSW,201,0.0,0.0,93,0.00,,,0.00,Wunderground v.1.15,2013-10-18 04:11:00,
2013-10-17 23:16:00,45.1,43.2,29.62,SSW,195,0.0,0.0,93,0.00,,,0.00,Wunderground v.1.15,2013-10-18 04:16:00,
2013-10-17 23:21:00,44.9,43.0,29.62,SSW,212,0.0,0.0,93,0.00,,,0.00,Wunderground v.1.15,2013-10-18 04:21:00,
2013-10-17 23:26:00,44.9,43.0,29.62,SW,214,0.0,0.0,93,0.00,,,0.00,Wunderground v.1.15,2013-10-18 04:26:00,
2013-10-17 23:32:00,44.8,42.9,29.63,SW,219,0.0,0.0,93,0.00,,,0.00,Wunderground v.1.15,2013-10-18 04:32:00,
2013-10-17 23:37:00,44.8,42.9,29.63,SSE,166,0.0,0.0,93,0.00,,,0.00,Wunderground v.1.15,2013-10-18 04:37:00,
2013-10-17 23:42:00,44.8,42.9,29.63,SE,138,0.0,0.0,93,0.00,,,0.00,Wunderground v.1.15,2013-10-18 04:42:00,
2013-10-17 23:47:00,44.7,42.8,29.62,SSW,205,0.0,0.0,93,0.00,,,0.00,Wunderground v.1.15,2013-10-18 04:47:00,
2013-10-17 23:52:00,44.6,43.0,29.63,SSW,205,0.0,0.0,94,0.00,,,0.00,Wunderground v.1.15,2013-10-18 04:52:00,
2013-10-17 23:57:00,44.5,42.9,29.62,SSW,205,0.0,0.0,94,0.00,,,0.00,Wunderground v.1.15,2013-10-18 04:57:00,